Content
SEND FEEDBACK

Daily
Averages
Monthly
Summary
United States of America

TAMUNING, GUAM


Home > North America > United States > Guam
Elevation: 250 feet     Latitude: 13 29N     Longitude: 144 47E

WEATHER
 
SELECT A DAY
Number of Records: 342,219;   Date Range: 1/1/95 - 8/28/14
 
SHARE

PRINT THIS DATA

[ ← Previous Day ]
WEATHER ALMANAC - APRIL 26, 2013
[ Next Day → ]
[ °C ]   °F
Weather ElementAverageHighLow
Temperature80.6 °F86 °F (1:08 pm)76.3 °F (2:55 am)
Dewpoint75.1 °F77.4 °F (9:55 am)73.4 °F (3:45 am)
Humidity83.7 %94 % (1:46 am)70 % (1:08 pm)
Barometer29.55 in29.89 in (9:10 am) (7:00 pm)
Wind Speed11.2 mph17.3 mph (8:59 pm)
Wind Gust19.6 mph (9:27 am)
Weather ElementAverage
Visibility9.7 mi
Wind DirectionE (89.8 °)

Weather ElementTotal
Precipitation0.07 in
Cooling Degree Days16.2 (Base 65)
Growing Degree Days31.2 (Base 50)
Averaged from 105 records on April 26, 2013
WEATHER CONDITIONS BREAKOUT
WIND DIRECTION BREAKOUT
WEATHER BY HOUR - APRIL 26, 2013
[ °C ]   °F
Local TimeTemperatureDewpointHumidityBarometerVisibilityWind DirectionWind SpeedGust SpeedPrecipitationEventsConditions
12:55 AM78.1 °F74.8 °F90 %29.85 in10.0 miENE (60°)12.7 mphScattered Clouds
1:46 AM77.0 °F75.2 °F94 %29.84 in10.0 miENE (70°)8.1 mphMostly Cloudy
1:55 AM77.7 °F75.4 °F92 %29.84 in10.0 miENE (60°)15.0 mph0.00 inLight Drizzle
2:03 AM77.0 °F75.2 °F94 %29.84 in7.0 miEast (90°)11.5 mphRainLight Rain
2:04 AM77.0 °F75.2 °F94 %29.84 in7.0 miEast (80°)10.4 mphRainLight Rain
2:23 AM77.0 °F75.2 °F94 %29.83 in9.0 miENE (70°)10.4 mphMostly Cloudy
2:55 AM76.3 °F74.1 °F93 %29.83 in10.0 miENE (70°)8.1 mph0.02 inPartly Cloudy
3:15 AM77.0 °F75.2 °F94 %29.83 in10.0 miEast (80°)8.1 mphMostly Cloudy
3:45 AM77.0 °F73.4 °F89 %29.82 in10.0 miEast (100°)10.4 mphScattered Clouds
3:55 AM77.7 °F74.1 °F89 %29.82 in10.0 miEast (90°)11.5 mphScattered Clouds
4:02 AM78.8 °F75.2 °F89 %29.82 in10.0 miEast (90°)11.5 mphMostly Cloudy
4:07 AM78.8 °F73.4 °F83 %29.82 in10.0 miEast (90°)12.7 mphScattered Clouds
4:13 AM78.8 °F73.4 °F83 %29.82 in10.0 miEast (100°)11.5 mphScattered Clouds
4:16 AM78.8 °F73.4 °F83 %29.82 in10.0 miEast (100°)11.5 mphMostly Cloudy
4:32 AM78.8 °F75.2 °F89 %10.0 miNorthScattered Clouds
4:43 AM78.8 °F75.2 °F89 %29.82 in10.0 miEast (90°)10.4 mphMostly Cloudy
4:54 AM78.8 °F75.2 °F89 %29.82 in10.0 miEast (100°)10.4 mphScattered Clouds
4:55 AM78.1 °F74.7 °F89 %29.82 in10.0 miESE (110°)10.4 mphScattered Clouds
4:56 AM78.8 °F75.2 °F89 %29.82 in10.0 miEast (100°)9.2 mphMostly Cloudy
4:59 AM78.8 °F75.2 °F89 %29.83 in10.0 miEast (100°)11.5 mphScattered Clouds
5:03 AM77.0 °F73.4 °F89 %29.83 in10.0 miEast (90°)9.2 mphMostly Cloudy
5:13 AM78.8 °F73.4 °F83 %29.83 in10.0 miEast (100°)11.5 mphMostly Cloudy
5:14 AM78.8 °F73.4 °F83 %29.83 in10.0 miEast (100°)11.5 mphScattered Clouds
5:42 AM78.8 °F73.4 °F83 %29.83 in10.0 miEast (90°)10.4 mphMostly Cloudy
5:45 AM78.8 °F73.4 °F83 %29.83 in10.0 miEast (100°)10.4 mphScattered Clouds
5:55 AM77.9 °F73.9 °F88 %29.84 in10.0 miEast (100°)10.4 mphMostly Cloudy
6:01 AM78.8 °F73.4 °F83 %29.84 in10.0 miEast (90°)10.4 mphMostly Cloudy
6:10 AM78.8 °F73.4 °F83 %29.84 in10.0 miESE (110°)9.2 mphMostly Cloudy
6:13 AM78.8 °F73.4 °F83 %29.84 in10.0 miESE (110°)8.1 mphScattered Clouds
6:21 AM78.8 °F75.2 °F89 %29.84 in10.0 miEast (100°)10.4 mphMostly Cloudy
6:35 AM78.8 °F75.2 °F89 %29.85 in10.0 miEast (90°)10.4 mphMostly Cloudy
6:36 AM78.8 °F75.2 °F89 %29.85 in10.0 miEast (80°)10.4 mphMostly Cloudy
6:55 AM79.3 °F74.8 °F86 %29.86 in10.0 miEast (90°)10.4 mphMostly Cloudy
6:57 AM78.8 °F75.2 °F89 %29.86 in10.0 miEast (90°)10.4 mphScattered Clouds
7:55 AM81.3 °F75.0 °F81 %29.88 in10.0 miEast (80°)11.5 mphPartly Cloudy
8:55 AM82.9 °F75.9 °F79 %29.88 in10.0 miEast (80°)12.7 mphScattered Clouds
9:03 AM82.4 °F75.2 °F79 %29.88 in10.0 miEast (80°)12.7 mphMostly Cloudy
9:10 AM82.4 °F75.2 °F79 %29.89 in10.0 miEast (90°)11.5 mphMostly Cloudy
9:16 AM82.4 °F75.2 °F79 %29.88 in10.0 miEast (90°)11.5 mphScattered Clouds
9:18 AM82.4 °F75.2 °F79 %29.89 in10.0 miEast (100°)12.7 mphMostly Cloudy
9:20 AM82.4 °F75.2 °F79 %29.89 in10.0 miSE (130°)12.7 mphMostly Cloudy
9:27 AM80.6 °F73.4 °F79 %29.88 in10.0 miESE (110°)9.2 mph19.6 mphScattered Clouds
9:50 AM82.4 °F75.2 °F79 %29.88 in5.0 miESE (110°)12.7 mphRainLight Rain
9:55 AM80.8 °F77.4 °F89 %29.88 in3.0 miEast (100°)10.4 mph0.02 inRainLight Rain
10:02 AM80.6 °F77.0 °F89 %29.88 in9.0 miEast (100°)8.1 mphPartly Cloudy
10:55 AM83.1 °F76.6 °F81 %29.87 in10.0 miEast (100°)10.4 mph0.00 inScattered Clouds
11:13 AM82.4 °F77.0 °F84 %29.87 in9.0 miESE (110°)12.7 mphLight Drizzle
11:18 AM80.6 °F77.0 °F89 %29.86 in8.0 miESE (110°)11.5 mphRainLight Rain
11:22 AM80.6 °F77.0 °F89 %29.86 in8.0 miESE (110°)11.5 mphRainLight Rain
11:26 AM82.4 °F77.0 °F84 %29.86 in10.0 miESE (110°)10.4 mphMostly Cloudy
11:34 AM82.4 °F77.0 °F84 %29.86 in10.0 miESE (120°)9.2 mphMostly Cloudy
11:35 AM82.4 °F77.0 °F84 %29.86 in10.0 miESE (120°)10.4 mphMostly Cloudy
11:55 AM83.8 °F77.0 °F80 %29.86 in10.0 miEast (100°)12.7 mph0.00 inMostly Cloudy
11:56 AM84.2 °F77.0 °F79 %29.86 in10.0 miEast (100°)13.8 mphMostly Cloudy
12:55 PM85.1 °F75.2 °F72 %29.83 in10.0 miEast (90°)13.8 mphMostly Cloudy
1:04 PM84.2 °F75.2 °F74 %29.83 in10.0 miEast (100°)11.5 mphMostly Cloudy
1:08 PM86.0 °F75.2 °F70 %29.83 in10.0 miEast (90°)11.5 mphMostly Cloudy
1:33 PM84.2 °F75.2 °F74 %29.82 in10.0 miEast (100°)11.5 mphMostly Cloudy
1:49 PM86.0 °F75.2 °F70 %29.82 in10.0 miEast (100°)11.5 mphScattered Clouds
1:55 PM85.3 °F75.7 °F73 %29.81 in10.0 miEast (90°)9.2 mph17.3 mphScattered Clouds
2:10 PM84.2 °F77.0 °F79 %29.81 in10.0 miEast (90°)9.2 mph17.3 mphMostly Cloudy
2:21 PM84.2 °F75.2 °F74 %29.81 in10.0 miEast (90°)12.7 mph19.6 mphMostly Cloudy
2:22 PM84.2 °F75.2 °F74 %29.81 in10.0 miEast (90°)12.7 mphMostly Cloudy
2:47 PM84.2 °F75.2 °F74 %29.80 in10.0 miEast (100°)11.5 mphMostly Cloudy
2:49 PM84.2 °F75.2 °F74 %29.80 in10.0 miEast (100°)10.4 mphScattered Clouds
2:55 PM84.9 °F75.4 °F73 %29.80 in10.0 miEast (100°)12.7 mphMostly Cloudy
3:00 PM84.2 °F75.2 °F74 %29.80 in10.0 miEast (100°)12.7 mphScattered Clouds
3:11 PM84.2 °F77.0 °F79 %29.80 in10.0 miEast (90°)11.5 mphMostly Cloudy
3:24 PM84.2 °F75.2 °F74 %29.79 in10.0 miEast (80°)13.8 mphScattered Clouds
3:31 PM84.2 °F75.2 °F74 %29.79 in10.0 miESE (110°)13.8 mphMostly Cloudy
3:35 PM84.2 °F75.2 °F74 %29.79 in10.0 miEast (100°)12.7 mphScattered Clouds
3:55 PM84.9 °F75.2 °F73 %29.78 in10.0 miESE (110°)11.5 mphPartly Cloudy
4:53 PM82.4 °F75.2 °F79 %29.78 in10.0 miEast (80°)13.8 mphMostly Cloudy
4:54 PM82.4 °F75.2 °F79 %29.78 in10.0 miEast (80°)13.8 mphMostly Cloudy
4:55 PM82.6 °F75.6 °F79 %29.78 in10.0 miEast (80°)13.8 mphMostly Cloudy
4:56 PM82.4 °F75.2 °F79 %29.78 in10.0 miEast (90°)13.8 mphScattered Clouds
5:55 PM81.0 °F74.5 °F81 %29.80 in10.0 miEast (90°)11.5 mphPartly Cloudy
6:12 PM80.6 °F75.2 °F84 %29.81 in10.0 miEast (90°)11.5 mphMostly Cloudy
6:18 PM80.6 °F75.2 °F84 %29.81 in10.0 miEast (80°)9.2 mphMostly Cloudy
6:21 PM80.6 °F75.2 °F84 %29.81 in10.0 miEast (90°)8.1 mphMostly Cloudy
6:25 PM80.6 °F75.2 °F84 %29.81 in10.0 miEast (80°)10.4 mphMostly Cloudy
6:40 PM80.6 °F75.2 °F84 %29.81 in10.0 miEast (80°)11.5 mphMostly Cloudy
6:47 PM80.6 °F75.2 °F84 %29.81 in10.0 miEast (80°)10.4 mphScattered Clouds
6:55 PM79.9 °F74.5 °F83 %29.82 in10.0 miEast (80°)11.5 mphScattered Clouds
7:36 PM80.6 °F75.2 °F84 %29.83 in10.0 miEast (80°)11.5 mphMostly Cloudy
7:47 PM80.6 °F75.2 °F84 %29.83 in10.0 miEast (80°)10.4 mphScattered Clouds
7:55 PM79.7 °F74.1 °F83 %29.83 in10.0 miEast (80°)13.8 mphScattered Clouds
8:55 PM79.7 °F74.7 °F84 %29.86 in10.0 miEast (80°)13.8 mphPartly Cloudy
8:59 PM78.8 °F75.2 °F89 %29.86 in8.0 miENE (70°)17.3 mphRainRain
9:04 PM78.8 °F73.4 °F83 %29.86 in6.0 miENE (70°)9.2 mphRainLight Rain
9:17 PM78.8 °F75.2 °F89 %29.86 in9.0 miENE (70°)6.9 mphMostly Cloudy
9:27 PM78.8 °F75.2 °F89 %29.86 in10.0 miEast (80°)12.7 mph17.3 mphMostly Cloudy
9:55 PM78.8 °F75.4 °F89 %29.87 in10.0 miENE (70°)12.7 mph0.03 inMostly Cloudy
10:00 PM78.8 °F75.2 °F89 %29.87 in10.0 miEast (80°)10.4 mphScattered Clouds
10:08 PM78.8 °F75.2 °F89 %29.87 in10.0 miEast (80°)10.4 mphMostly Cloudy
10:31 PM78.8 °F75.2 °F89 %29.88 in10.0 miEast (80°)11.5 mphScattered Clouds
10:33 PM78.8 °F75.2 °F89 %29.88 in10.0 miEast (80°)9.2 mphMostly Cloudy
10:39 PM78.8 °F75.2 °F89 %29.88 in10.0 miEast (80°)10.4 mphScattered Clouds
10:40 PM78.8 °F75.2 °F89 %29.88 in10.0 miEast (80°)9.2 mphMostly Cloudy
10:42 PM78.8 °F75.2 °F89 %29.88 in10.0 miEast (90°)10.4 mphMostly Cloudy
10:44 PM78.8 °F75.2 °F89 %29.88 in10.0 miEast (80°)10.4 mphMostly Cloudy
10:47 PM78.8 °F75.2 °F89 %29.88 in10.0 miEast (90°)11.5 mphScattered Clouds
10:55 PM78.8 °F75.4 °F89 %29.88 in10.0 miEast (80°)9.2 mphScattered Clouds
11:43 PM78.8 °F75.2 °F89 %29.87 in10.0 miEast (80°)10.4 mphMostly Cloudy
11:55 PM78.8 °F74.7 °F87 %29.87 in10.0 miEast (80°)11.5 mphScattered Clouds
Hourly data recorded from PGUA, located miles away from Tamuning, Guam







STORIES FROM OUR PARTNERS